Regional Weather Roundup
Issued by NWS Columbia, SC

Home | Current Version | Previous Version | Text Only | Print | Product List | Glossary On
Versions: 1 2 3 4 5 6 7 8 9 10 11 12 13 14 15 16 17 18 19 20 21 22 23 24 25 26 27 28 29 30 31 32 33 34 35 36 37 38 39 40 41 42 43 44 45 46 47 48 49 50
000
ASUS42 KCAE 311910
RWRCAE
REGIONAL WEATHER ROUNDUP
NATIONAL WEATHER SERVICE COLUMBIA SC
300 PM EDT FRI JUL 31 2015

NOTE: "FAIR" INDICATES FEW OR NO CLOUDS BELOW 12,000 FEET WITH NO
SIGNIFICANT WEATHER AND/OR OBSTRUCTIONS TO VISIBILITY.

NOT ALL STATIONS ARE QUALITY CONTROLLED BY THE NATIONAL
WEATHER SERVICE. USE DATA WITH CAUTION...ESPECIALLY
DEWPOINT OBSERVATIONS.

SCZ001>056-GAZ040-063>065-077-312000-
...UPSTATE SOUTH CAROLINA...

CITY           SKY/WX    TMP DP  RH WIND       PRES   REMARKS
ANDERSON       SUNNY     89  63  41 VRB5      29.97F
SPARTANBURG      N/A     90  61  37 N5        29.97F
CLEMSON        SUNNY     89  64  43 VRB5      29.99F
GREENVILLE     SUNNY     88  63  43 VRB5      29.99F
GREENWOOD      SUNNY     92  61  35 VRB6      29.97F
GREER          SUNNY     87  63  44 NW5       29.97F
ROCK HILL      SUNNY     88  60  38 CALM      29.97F
CHESTER        CLEAR     90  54  29 CALM      29.97F
LAURENS        CLEAR     91  70  49 NE9       29.96F HX  97


...CENTRAL SOUTH CAROLINA...

CITY           SKY/WX    TMP DP  RH WIND       PRES   REMARKS
COLUMBIA APT   MOSUNNY   94  62  34 E3        29.91F
COLUMBIA OWENS SUNNY     94  64  37 NE8       29.93F HX  95
DARLINGTON     SUNNY     95  63  34 NE6       29.92F HX  96
FLORENCE       PTSUNNY   92  68  45 E3        29.91F HX  96
MCENTIRE ANGB  MOSUNNY   93  66  40 NE9       29.92F HX  96
ORANGEBURG     MOSUNNY   93  68  43 VRB6      29.91F HX  97
SUMTER SHAW    SUNNY     95  67  40 E7        29.90F HX  99
NEWBERRY       CLEAR     90  63  40 NE7       29.97F
AIKEN          FAIR      90  61  37 E7        29.96F
BARNWELL       FAIR      93  73  52 SE5       29.91F HX 102
MANNING        RAIN      86  70  58 CALM      29.92F
CAMDEN         FAIR      91  64  40 CALM      29.93F
LANCASTER      CLEAR     90  63  40 E9        29.95F
WINNSBORO      CLEAR     91  63  38 NE7       29.94F


...EASTERN AND COASTAL SOUTH CAROLINA...

CITY           SKY/WX    TMP DP  RH WIND       PRES   REMARKS
MYRTLE BEACH   MOSUNNY   91  75  59 S12       29.92F HX 102
N MYRTLE BCH   PTSUNNY   87  77  72 S10       29.91F HX  99
CONWAY         FAIR      91  73  55 CALM      29.90F HX 100
MARION         FAIR      90  70  51 CALM      29.91F HX  95
HARTSVILLE     MOCLDY    91  61  35 CALM      29.91F
FLORENCE       PTSUNNY   92  68  45 E3        29.91F HX  96
DARLINGTON     SUNNY     95  63  34 NE6       29.92F HX  96
CHARLESTON APT PTSUNNY   89  76  65 S8        29.90F HX 100
MOUNT PLEASANT   N/A     86  77  74 SE3       29.91F HX  97
WALTERBORO     MOCLDY    91  75  59 SE3       29.91F HX 102
BEAUFORT       CLOUDY    84  77  79 S8        29.91F


...EASTERN GEORGIA...

CITY           SKY/WX    TMP DP  RH WIND       PRES   REMARKS
AUGUSTA BUSH F SUNNY     94  67  41 VRB7G18   29.90F HX  97
AUGUSTA DANIEL SUNNY     92  67  43 SE8       29.93F HX  95
THOMSON        MOSUNNY   94  72  47 N8        29.96F HX 102
WASHINGTON     FAIR      97  72  44 CALM      29.94F HX 105
CLAXTON        CLOUDY    88  79  74 SE5       29.88F HX 102
SYLVANIA       PTCLDY    96  78  56 E7        29.89F HX 112
STATESBORO     TSTM      78  78 100 NE3       29.91F
SAVANNAH       TSTM      75  70  83 N17       29.95R


...SOUTHERN NORTH CAROLINA...

CITY           SKY/WX    TMP DP  RH WIND       PRES   REMARKS
CHARLOTTE      MOSUNNY   89  56  32 CALM      29.97F
MONROE         SUNNY     89  61  38 VRB5      29.96F
WADESBORO      CLEAR     93  57  29 NW12G17   29.93F
ROCKINGHAM     CLEAR     91  62  37 NE5       29.92F
RUTHERFORDTON  SUNNY     88  57  35 E6        30.00F
ASHEVILLE      MOSUNNY   84  55  36 VRB6      30.06F

$$


USA.gov is the U.S. government's official web portal to all federal, state and local government web resources and services.